Location: ?
(35.4554°N, 139.3092°E)
Time: 20:53:22
(UTC+00:00)

BREEZE-M DEB (TANK) - Pass Details

Date: 21 April 2021
Orbit: 283 x 16789 km, 49.5° (Epoch: 10 May)

Event Time Altitude Azimuth Distance (km) Brightness Sun altitude
Exits shadow 17:12:39 76° 242° (WSW) 1,248 3.8 -30.5°
Maximum altitude 17:12:55 77° 218° (SW) 1,284 3.8 -30.5°
Drops below altitude 10° 17:31:43 10° 137° (SE) 8,285 8.3 -27.7°
Sets 17:44:42 0° 137° (SE) 12,268 9.2 -25.7°
